Location: Newark
(48.1500°N, 2.9667°W)
Time: 12:12:50
(UTC+00:00)

A-11 Canister half - Pass Details

Date: 25 January 2020
Orbit: 1524 x 1684 km, 47.3° (Epoch: 19 February)

Event Time Altitude Azimuth Distance (km) Brightness Sun altitude
Rises 16:12:48 0° 197° (SSW) 4,659 12.5 5.7°
Reaches altitude 10° 16:16:25 10° 186° (S) 3,684 11.7 5.2°
Maximum altitude 16:23:42 27° 133° (SE) 2,629 10.2 4.3°
Drops below altitude 10° 16:31:06 10° 81° (E) 3,754 10.5 3.2°
Sets 16:34:48 0° 70° (ENE) 4,765 10.9 2.7°
